www.pogodaiklimat.ru

Погода и климат >> Архив погоды >> Кувейт >> Experimental Farm


ПОГОДА в Experimental Farm

  • Прогноз погоды в Experimental Farm
  • Монитор погоды в Experimental Farm
  • Климат города

АРХИВ ПОГОДЫ в Experimental Farm

Время (UTC), дата Ветер
(напр.,м/с)
 
Видим.   Явления Облачность Т
(С)
Тd
(С)
f
(%)
Тe
(С)
Тes
(С)
Комфортность P
(гПа)
Po
(гПа)
Тmin
(С)
Tmax
(С)
R
(мм)
R24
(мм)
S
(см)
21 7.08 СЗ 5 н/о н/о +36.5 +7.9 17 +34 +34 очень
жарко
996.8 997.0 +35.3 +46.8
00 8.08 СЗ 3 н/о н/о +34.8 +7.5 19 +33 +33 жарко 996.9 997.0
03 8.08 СЗ 4 н/о н/о +33.6 +8.7 22 +32 +32 жарко 997.1 997.0
06 8.08 СЗ 5 н/о н/о +38.4 +8.7 17 +37 +37 очень
жарко
997.9 998.0
09 8.08 СЗ 5 н/о н/о +44.0 +7.9 12 +42 +42 опасность
перегрева
997.0 997.0
12 8.08 СЗ 4 н/о н/о +46.1 +7.4 10 +44 +44 опасность
перегрева
995.5 996.0
15 8.08 СЗ 3 н/о н/о +41.8 +8.9 14 +40 +40 очень
жарко
995.4 995.0
18 8.08 СЗ 5 н/о н/о +40.0 +7.3 14 +38 +38 очень
жарко
997.3 997.0
21 8.08 СЗ 3 н/о н/о +36.5 +10.8 21 +36 +36 очень
жарко
997.2 997.0 +33.3 +46.7
00 9.08 СЗ 2 н/о н/о +35.0 +10.1 22 +34 +34 очень
жарко
997.2 997.0
03 9.08 СЗ 2 н/о н/о +34.2 +10.3 23 +33 +33 жарко 998.9 999.0
06 9.08 СЗ 3 н/о н/о +38.7 +9.1 17 +37 +37 очень
жарко
1000.2 1000.0
09 9.08 СЗ 4 н/о н/о +44.7 +7.8 11 +42 +42 опасность
перегрева
999.1 999.0
12 9.08 СЗ 4 н/о н/о +46.6 +6.9 10 +44 +44 опасность
перегрева
997.8 998.0
15 9.08 СЗ 2 н/о н/о +42.2 +9.8 15 +41 +41 опасность
перегрева
997.8 998.0
18 9.08 СЗ 3 н/о н/о +40.3 +9.3 16 +39 +39 очень
жарко
1000.0 1000.0
21 9.08 СЗ 2 н/о н/о +37.6 +7.5 16 +35 +35 очень
жарко
1000.7 1001.0 +33.8 +47.1
00 10.08 СЗ 2 н/о н/о +35.9 +5.6 15 +33 +33 жарко 1000.7 1001.0
03 10.08 СЗ 2 н/о н/о +34.8 +5.4 16 +32 +32 жарко 1002.0 1002.0
06 10.08 СЗ 2 н/о н/о +39.8 +8.5 15 +38 +38 очень
жарко
1003.1 1003.0
09 10.08 СЗ 4 н/о н/о +44.4 +7.9 11 +42 +42 опасность
перегрева
1002.1 1002.0
12 10.08 С 3 н/о н/о +46.1 +7.3 10 +44 +44 опасность
перегрева
1000.2 1000.0
15 10.08 СЗ 3 н/о н/о +41.7 +8.7 14 +40 +40 очень
жарко
999.9 1000.0
18 10.08 СЗ 4 н/о н/о +40.1 +5.0 12 +37 +37 очень
жарко
1001.6 1002.0
21 10.08 СЗ 2 н/о н/о +37.3 +5.6 14 +35 +35 очень
жарко
1001.9 1002.0 +33.1 +47.0
00 11.08 СЗ 2 н/о н/о +34.2 +8.8 21 +33 +33 жарко 1001.5 1002.0
03 11.08 СЗ 2 н/о н/о +31.6 +10.2 27 +31 +31 жарко 1002.2 1002.0
06 11.08 СЗ 3 н/о н/о +39.8 +5.8 13 +37 +37 очень
жарко
1002.7 1003.0
09 11.08 СЗ 4 н/о н/о +44.6 +6.6 10 +42 +42 опасность
перегрева
1001.5 1002.0
12 11.08 СЗ 4 н/о н/о +46.0 +6.9 10 +44 +44 опасность
перегрева
999.3 999.0
15 11.08 СЗ 4 н/о н/о +42.6 +8.0 13 +41 +41 опасность
перегрева
999.1 999.0
18 11.08 СЗ 3 н/о н/о +40.7 +5.5 12 +38 +38 очень
жарко
1000.6 1001.0
21 11.08 СЗ 2 н/о н/о +35.7 +5.7 16 +33 +33 жарко 1001.5 1002.0 +31.5 +46.2
00 12.08 СЗ 2 н/о н/о +34.1 +7.5 19 +32 +32 жарко 1000.8 1001.0
03 12.08 СЗ 3 н/о н/о +34.5 +4.9 16 +32 +32 жарко 1000.9 1001.0
06 12.08 СЗ 4 н/о н/о +40.5 +6.3 13 +38 +38 очень
жарко
1001.3 1001.0
09 12.08 СЗ 5 н/о н/о +45.1 +6.1 10 +43 +43 опасность
перегрева
1000.0 1000.0
12 12.08 СЗ 3 н/о н/о +46.6 +6.1 9 +44 +44 опасность
перегрева
997.9 998.0
15 12.08 СЗ 4 н/о н/о +43.1 +5.9 11 +40 +40 очень
жарко
996.9 997.0
18 12.08 СЗ 4 н/о н/о +40.6 +5.0 11 +38 +38 очень
жарко
998.1 998.0
21 12.08 СЗ 5 н/о н/о +37.6 +6.0 14 +35 +35 очень
жарко
997.2 997.0 +33.7 +46.8
00 13.08 СЗ 5 н/о н/о +36.0 +6.3 16 +34 +34 очень
жарко
996.9 997.0
03 13.08 СЗ 4 н/о н/о +34.5 +7.8 19 +33 +33 жарко 997.5 998.0
06 13.08 СЗ 6 н/о н/о +38.2 +8.8 17 +36 +36 очень
жарко
998.2 998.0
09 13.08 СЗ 5 н/о н/о +43.2 +5.7 10 +40 +40 очень
жарко
996.4 996.0
12 13.08 СЗ 5 н/о н/о +43.0 +6.0 11 +40 +40 очень
жарко
995.1 995.0
15 13.08 СЗ 5 н/о н/о +41.0 +6.6 12 +38 +38 очень
жарко
995.1 995.0
18 13.08 СЗ 4 н/о н/о +38.7 +6.0 14 +36 +36 очень
жарко
996.2 996.0
21 13.08 СЗ 2 н/о н/о +35.3 +7.0 17 +33 +33 жарко 996.5 997.0 +34.1 +44.5
00 14.08 СЗ 3 н/о н/о +34.2 +5.8 17 +32 +32 жарко 996.7 997.0
03 14.08 СЗ 3 н/о н/о +33.1 +2.8 15 +30 +30 жарко 997.7 998.0
06 14.08 СЗ 5 н/о н/о +38.4 +3.9 12 +35 +35 очень
жарко
998.5 999.0
09 14.08 СЗ 4 н/о н/о +43.3 +5.0 10 +40 +40 очень
жарко
997.8 998.0

 

Местоположение метеостанции Experimental Farm (Кувейт): широта 29.29 долгота 47.94 высота над уровнем моря 21 м.

В архиве по умолчанию представлена погода в Experimental Farm за последнюю неделю. Архивные данные за месяц целиком и за предыдущие месяцы, начиная с января 2011 года, Вы можете получить, выбрав интересующий диапазон дат из раскрывающегося списка и нажав кнопку "Ввод!".


*Определитесь, кто Вы:
робот инопланетянин человек

Внимание! Время в таблицах - всемирное. Для получения местного времени необходимо прибавить поправку, которая в Experimental Farm равна 3 ч.

Смотрите также архив погоды в соседних городах и на ближайших метеорологических станциях:

Погода в Kuwait (Кувейт) (8 км)
Погода в Kuwait City (Кувейт) (12 км)
Погода в Al-Shuaiba (Кувейт) (17 км)
Погода в Sulaibiya (Кувейт) (21 км)
Погода в Jahra (Кувейт) (26 км)
Погода в Failaka Island (Кувейт) (39 км)
Погода в Minagish (Кувейт) (47 км)
Погода в Jal Aliyah (Кувейт) (50 км)
Погода в Sabriyah (Кувейт) (52 км)
Погода в Juluiah Port (Кувейт) (57 км)

Пояснения к столбцам:

Ветер - указаны скорость ветра в м/с - средняя за 10 мин, порывы в срок и между сроками (в фигурных скобках) и направление, откуда дует ветер: С - северный, СВ - северо-восточный, В - восточный, ЮВ - юго-восточный, Ю - южный, ЮЗ - юго-западный, З - западный, СЗ - северо-западный.
Видимость - горизонтальная дальность видимости в метрах или километрах. При видимости от 1 до 10 км при отсутствии осадков обычно наблюдается дымка, при ухудшении видимости до 1 км и менее - туман. В сухую погоду видимость может ухудшаться дымом, пылью или мглою.
Явления - указаны атмосферные явления, наблюдавшиеся в срок или в последний час перед сроком; фигурными скобками обозначены явления, наблюдавшиеся между сроками (за 1-3 часа до срока); квадратными скобками обозначены град или гололедные отложения с указанием их диаметра в мм.
Облачность - указаны через наклонную черту общая и нижняя облачность в баллах и высота нижней границы облаков в метрах; квадратными скобками обозначены формы облаков: Ci - перистые, Cs - перисто-слоистые, Cc - перисто-кучевые, Ac - высококучевые, As - высокослоистые, Sc - слоисто-кучевые, Ns - слоисто-дождевые, Cu - кучевые, Cb - кучево-дождевые. Подробнее классификацию облаков см. в Атласе облаков (PDF).
T - Температура воздуха - температура, измеренная на высоте 2 м над землей.
Td - Температура точки росы - температура, при понижении до которой содержащийся в воздухе водяной пар достигнет насыщения.
f - Относительная влажность воздуха - влажноcть воздуха, измеренная на высоте 2 м над землей.
Te - Эффективная температура - температура, которую ощущает одетый по сезону человек в тени. Характеристика душности погоды. При расчете учитывается влияние влажности воздуха и скорости ветра на теплоощущения человека.
Tes - Эффективная температура на солнце - температура, которую ощущает человек, с поправкой на солнечный нагрев. Характеристика знойности погоды. Зависит от высоты солнца над горизонтом, облачности и скорости ветра. Ночью, в пасмурную погоду, а также при ветре 12 м/с и более поправка равна нулю.
P - Атмосферное давление - приведенное к уровню моря атмосферное давление.
Po - Атмосферное давление - измеренное на уровне метеостанции атмосферное давление.
Tmin - Минимальная температура - минимум температуры воздуха на высоте 2 м над землей.
Tmax - Максимальная температура - максимум температуры воздуха на высоте 2 м над землей.
R - Количество осадков - Количество выпавших осадков за период времени, мм. При наведении курсора мыши на число - период времени, за который выпало указанное количество осадков.
R24 - Количество осадков - Количество выпавших осадков за 24 часа, мм.
S - Снежный покров - Высота снежного покрова, см. При наведении курсора мыши на число - состояние снежного покрова и степень покрытия местности в баллах.